Regional Weather Roundup
Issued by NWS

Home | Current Version | Previous Version | Graphics & Text | Print | Product List | Glossary Off
Versions: 1 2 3 4 5 6 7 8 9 10 11 12 13 14 15 16 17 18 19 20 21 22 23 24 25 26 27 28 29 30 31 32 33 34 35 36 37 38 39 40 41 42 43 44 45 46 47 48 49 50

000
ASUS44 KMEG 151010
RWRTN
TENNESSEE HOURLY STATE WEATHER ROUNDUP
NATIONAL WEATHER SERVICE MEMPHIS TN
500 AM CDT MON SEP 15 2014

TNZ002-004-019-021-049-052-054-088>092-151100-
WEST TENNESSEE

CITY           SKY/WX    TMP DP  RH WIND       PRES   REMARKS
MEMPHIS INTL   CLOUDY    66  58  75 E3        30.15S
NWS MEMPHIS      N/A     62 N/A N/A MISG        N/A
JACKSON        MOCLDY    58  56  93 CALM      30.17S
DYERSBURG      CLOUDY    57  46  67 CALM      30.17S
UNION CITY     CLEAR     54  54 100 CALM      30.16S
PARIS          CLEAR     52  52 100 CALM      30.18S
HUNTINGDON     MOCLDY    55  53  93 CALM      30.18R
LEXINGTON      CLEAR     55  54  94 CALM      30.16S
SAVANNAH       CLEAR     57  57 100 CALM      30.17S
$$

TNZ008-025-027-028-033-062-065-066-151100-
NORTH MIDDLE TENNESSEE

CITY           SKY/WX    TMP DP  RH WIND       PRES   REMARKS
NASHVILLE      MOCLDY    57  55  93 CALM      30.19R
PORTLAND       PTCLDY    52  52 100 CALM      30.17S
CLARKSVILLE    PTCLDY    54  52  93 CALM      30.18R
LEBANON        CLEAR     53  53 100 CALM      30.17R
SMYRNA         CLEAR     55  55 100 CALM      30.20R FOG
MURFREESBORO   CLEAR     57  56  97 CALM      30.18R
COOKEVILLE     CLEAR     54  54 100 CALM      30.19R
GALLATIN       CLEAR     54  53  96 CALM      30.19R
CROSSVILLE     CLOUDY    64  60  87 CALM      30.22R FOG
$$

TNZ061-075-076-078-094-096-097-151100-
SOUTH MIDDLE TENNESSEE

CITY           SKY/WX    TMP DP  RH WIND       PRES   REMARKS
LEWISBURG      CLEAR     54  53  96 CALM      30.18R
FAYETTEVILLE     N/A     61  61 100 NE3       30.17S
TULLAHOMA      CLEAR     57  55  94 CALM      30.20R
WINCHESTER     CLEAR     57  57 100 CALM      30.18S
MCMINNVILLE    CLOUDY    57  57 100 CALM      30.20R VSB 1/4
COLUMBIA       CLEAR     55  55 100 CALM      30.17S
SHELBYVILLE    CLEAR     57  57 100 CALM      30.20R
$$

TNZ017-018-042-046-047-151100-
NORTHEAST TENNESSEE

CITY           SKY/WX    TMP DP  RH WIND       PRES   REMARKS
TRI CITIES     CLOUDY    61  58  90 CALM      30.22R
ELIZABETHTON   CLOUDY    63  61  94 CALM      30.22R
$$

TNZ012-013-036-069-073-074-151100-
CENTRAL EAST TENNESSEE

CITY           SKY/WX    TMP DP  RH WIND       PRES   REMARKS
KNOXVILLE      CLOUDY    67  66  97 SW5       30.19R
OAK RIDGE      CLOUDY    67  65  93 CALM      30.21R
GATLINBURG     CLOUDY    63  63 100 CALM      30.20R
MORRISTOWN       N/A     63  63 100 CALM      30.22R
$$

TNZ083-085-099-151100-
SOUTHEAST TENNESSEE

CITY           SKY/WX    TMP DP  RH WIND       PRES   REMARKS
CHATTANOOGA    CLOUDY    67  64  90 S7        30.20R
$$

SKY/WX REPORTED AS FAIR MEANS FEW OR NO CLOUDS BELOW
12 THOUSAND FEET.




USA.gov is the U.S. government's official web portal to all federal, state and local government web resources and services.